Content
SEND FEEDBACK

Daily
Averages
Monthly
Summary
United States of America

CHELSEA, MICHIGAN


Home > North America > United States > Michigan
Elevation: 900 feet     Latitude: 42 19N     Longitude: 084 01W

WEATHER
 
SELECT A DAY
Number of Records: 203,193;   Date Range: 1/1/95 - 7/23/14
 
SHARE

PRINT THIS DATA

[ ← Previous Day ]
WEATHER ALMANAC - DECEMBER 8, 2013
[ Next Day → ]
[ °C ]   °F
Weather ElementAverageHighLow
Temperature23 °F28.9 °F (10:53 pm)10 °F (2:53 am)
Dewpoint17.8 °F27 °F (10:53 pm)6.1 °F (1:53 am)
Humidity80.4 %93 % (9:48 pm)65 % (10:53 am)
Barometer30.25 in30.59 in (2:53 am)29.96 in (11:59 pm)
Wind Speed8.1 mph11.5 mph (1:53 pm)
Weather ElementAverage
Visibility6 mi
Wind DirectionENE (84.3 °)

Weather ElementTotal
Precipitation---
Heating Degree Days45.6 (Base 65)
Averaged from 42 records on December 8, 2013
WEATHER CONDITIONS BREAKOUT
WIND DIRECTION BREAKOUT
WEATHER BY HOUR - DECEMBER 8, 2013
[ °C ]   °F
Local TimeTemperatureDewpointHumidityBarometerVisibilityWind DirectionWind SpeedGust SpeedPrecipitationEventsConditions
1:53 AM14.0 °F6.1 °F71 %30.58 in10.0 miCalmClear
2:53 AM10.0 °F6.1 °F84 %30.59 in10.0 miCalmClear
3:53 AM14.0 °F7.0 °F74 %30.59 in10.0 miNE (40°)3.5 mphClear
4:53 AM14.0 °F8.1 °F77 %30.57 in10.0 miNNE (30°)6.9 mphClear
5:53 AM15.1 °F8.1 °F74 %30.55 in10.0 miNE (40°)6.9 mphClear
6:53 AM14.0 °F7.0 °F74 %30.54 in10.0 miENE (60°)6.9 mphClear
7:53 AM15.1 °F7.0 °F70 %30.54 in10.0 miENE (60°)3.5 mphClear
8:53 AM16.0 °F8.1 °F71 %30.53 in10.0 miENE (60°)5.8 mphClear
9:53 AM17.1 °F8.1 °F68 %30.51 in10.0 miENE (60°)9.2 mphOvercast
10:53 AM19.0 °F9.0 °F65 %30.48 in10.0 miENE (60°)10.4 mphOvercast
11:53 AM19.9 °F10.0 °F65 %30.45 in10.0 miENE (70°)6.9 mphOvercast
12:49 PM21.2 °F12.2 °F68 %30.35 in1.8 miENE (60°)5.8 mph0.00 inSnowLight Snow
12:53 PM21.0 °F12.0 °F68 %30.40 in1.5 miEast (80°)10.4 mph0.00 inSnowLight Snow
1:00 PM21.2 °F12.2 °F68 %30.35 in1.2 miENE (60°)10.4 mph0.00 inSnowLight Snow
1:18 PM19.4 °F14.0 °F80 %30.34 in2.0 miENE (70°)8.1 mph0.00 inSnowLight Snow
1:33 PM21.2 °F15.8 °F80 %30.33 in2.5 miENE (70°)6.9 mph0.00 inSnowLight Snow
1:46 PM21.2 °F15.8 °F80 %30.32 in3.0 miENE (70°)8.1 mph0.00 inSnowLight Snow
1:53 PM21.0 °F15.1 °F78 %30.36 in4.0 miEast (80°)11.5 mph0.00 inSnowLight Snow
2:53 PM21.9 °F16.0 °F78 %30.31 in10.0 miENE (70°)9.2 mph0.00 inOvercast
3:41 PM23.0 °F17.6 °F80 %30.25 in10.0 miENE (70°)8.1 mphOvercast
3:53 PM24.1 °F17.1 °F75 %30.29 in10.0 miENE (70°)5.8 mphOvercast
4:53 PM24.1 °F19.0 °F81 %30.24 in8.0 miENE (70°)10.4 mph0.00 inSnowLight Snow
5:53 PM26.1 °F21.0 °F81 %30.20 in10.0 miEast (90°)9.2 mph0.00 inOvercast
6:27 PM26.6 °F21.2 °F80 %30.16 in10.0 miEast (90°)8.1 mphOvercast
6:53 PM27.0 °F21.9 °F81 %30.16 in10.0 miEast (90°)10.4 mphOvercast
7:25 PM26.6 °F21.2 °F80 %30.11 in10.0 miEast (90°)10.4 mphOvercast
7:53 PM28.0 °F23.0 °F81 %30.14 in10.0 miEast (100°)11.5 mphOvercast
8:29 PM28.4 °F23.0 °F80 %30.07 in7.0 miEast (100°)9.2 mphOvercast
8:53 PM28.0 °F24.1 °F85 %30.10 in5.0 miESE (110°)11.5 mph0.00 inSnowLight Snow
9:14 PM28.4 °F24.8 °F86 %30.04 in2.5 miEast (100°)10.4 mph0.00 inSnowLight Snow
9:19 PM28.4 °F24.8 °F86 %30.04 in1.8 miESE (110°)10.4 mph0.00 inSnowLight Snow
9:27 PM28.4 °F24.8 °F86 %30.03 in1.2 miESE (120°)10.4 mph0.00 inSnowLight Snow
9:36 PM28.4 °F24.8 °F86 %30.02 in1.5 miESE (110°)9.2 mph0.00 inSnowLight Snow
9:48 PM28.4 °F26.6 °F93 %30.02 in1.8 miESE (110°)9.2 mph0.00 inSnowLight Snow
9:53 PM28.0 °F26.1 °F92 %30.06 in2.0 miESE (110°)9.2 mph0.00 inSnowLight Snow
10:02 PM28.4 °F26.6 °F93 %30.02 in1.5 miESE (120°)8.1 mph0.00 inSnowLight Snow
10:29 PM28.4 °F26.6 °F93 %30.01 in2.5 miESE (120°)6.9 mph0.00 inSnowLight Snow
10:36 PM28.4 °F26.6 °F93 %30.01 in3.0 miSE (140°)10.4 mph0.00 inOvercast
10:53 PM28.9 °F27.0 °F92 %30.03 in2.5 miSE (140°)9.2 mph0.00 inOvercast
11:33 PM28.4 °F26.6 °F93 %29.98 in1.2 miSE (140°)9.2 mph0.00 inSnowLight Snow
11:53 PM28.9 °F27.0 °F92 %30.00 in1.2 miSSE (150°)5.8 mph0.00 inSnowLight Snow
11:59 PM28.4 °F26.6 °F93 %29.96 in1.5 miSSE (150°)8.1 mph0.00 inSnowLight Snow
Hourly data recorded from KARB, located miles away from Chelsea, Michigan







STORIES FROM OUR PARTNERS